Terminal Aerodrome Forecast
Issued by NWS North Platte, NE

Home | Current Version | Previous Version | Text Only | Print | Product List | Glossary Off
Versions: 1 2 3 4 5 6 7 8 9 10 11 12

865
FTUS43 KLBF 011120
TAFVTN
TAF
KVTN 011120Z 0112/0212 29007KT P6SM BKN040
     FM012100 29007KT P6SM SCT250=

USA.gov is the U.S. government's official web portal to all federal, state and local government web resources and services.